This is the latest recevied weather packets stored in our database for station/object W3JGB. If no packets are shown the sender has not sent any weather packets the latest 10 day(s).
| Time | Temp. | Humidity | Pressure | Rain* | Wind** | Luminosity | Snow |
|---|---|---|---|---|---|---|---|
| 1777894784 | 7.78° C | 92% | 1012.3 hPa | 0 mm | - | 74 W/m² | - |
| 1777894480 | 6.11° C | 95% | 1012.4 hPa | 0 mm | - | 102 W/m² | - |
| 1777894178 | 5° C | 95% | 1012.3 hPa | 0 mm | - | 88 W/m² | - |
| 1777893875 | 3.89° C | 96% | 1012.3 hPa | 0 mm | - | 67 W/m² | - |
| 1777893571 | 3.89° C | 96% | 1012.2 hPa | 0 mm | - | 41 W/m² | - |
| 1777893268 | 3.33° C | 97% | 1012.5 hPa | 0 mm | - | 47 W/m² | - |
| 1777892964 | 3.33° C | 97% | 1012.2 hPa | 0 mm | - | 42 W/m² | - |
| 1777892661 | 2.78° C | 97% | 1012.2 hPa | 0 mm | - | 34 W/m² | - |
| 1777892357 | 2.78° C | 97% | 1012.4 hPa | 0 mm | - | 31 W/m² | - |
| 1777892053 | 2.22° C | 97% | 1012.4 hPa | 0 mm | - | 23 W/m² | - |
| 1777891751 | 1.67° C | 98% | 1012.3 hPa | 0 mm | - | 18 W/m² | - |
| 1777891447 | 1.67° C | 98% | 1012.3 hPa | 0 mm | - | 17 W/m² | - |
| 1777891143 | 1.67° C | 98% | 1012.2 hPa | 0 mm | - | 15 W/m² | - |
| 1777890838 | 1.67° C | 98% | 1012.1 hPa | 0 mm | - | 13 W/m² | - |
| 1777890534 | 1.11° C | 99% | 1012.3 hPa | 0 mm | - | 9 W/m² | - |
| 1777890229 | 1.11° C | 99% | 1012 hPa | 0 mm | - | 7 W/m² | - |
| 1777889926 | 1.11° C | 99% | 1012.3 hPa | 0 mm | - | 4 W/m² | - |
| 1777889624 | 0.56° C | 99% | 1012.5 hPa | 0 mm | - | 3 W/m² | - |
| 1777889321 | 0.56° C | 99% | 1012.3 hPa | 0 mm | - | 1 W/m² | - |
| 1777889018 | 0.56° C | 99% | 1012.4 hPa | 0 mm | - | 0 W/m² | - |
| 1777888716 | 0.56° C | 99% | 1012.3 hPa | 0 mm | - | 0 W/m² | - |
| 1777888411 | 0° C | 99% | 1012.4 hPa | 0 mm | - | 0 W/m² | - |
| 1777888108 | 0° C | 99% | 1012.7 hPa | 0 mm | - | 0 W/m² | - |
| 1777887805 | 0° C | 99% | 1012.5 hPa | 0 mm | - | 0 W/m² | - |
| 1777887502 | 0° C | 99% | 1012.7 hPa | 0 mm | - | 0 W/m² | - |
* Rain latest hour (hover to see other rain measurements)
** Current wind speed in m/s (hover to see current wind gust speed)